RH
89 89 87 82 95 95 94 96 94 94 92 98 99 96 96 96 96 96 94 84 94 93 84 83 80 87 90 95 97 98 92 82 84 82 86 90 94 96 94 72 75 82 88
88 87 86 82 91 95 94 95 92 82 86 98 98 94 96 96 96 98 88 91 91 90 87 90 88 91 95 97 98 96 95 74 77 85 87 97 96 95 96 85 93 93 88
91 89 86 83 87 91 93 88 89 92 81 96 99 98 96 97 97 88 89 90 91 90 91 93 94 96 96 96 96 87 82 82 73 65 85 90 93 97 92 83 80 88 98
92 90 84 83 92 91 95 96 90 97 90 94 97 99 97 89 82 86 89 88 92 94 96 96 95 93 87 88 87 76 73 72 62 44 52 61 81 95 84 80 81 88 85
91 87 86 87 90 89 93 90 83 90 92 90 93 94 96 96 94 86 82 91 96 90 82 74 79 79 78 80 73 74 72 68 44 40 42 52 66 80 88 95 93 86 89
89 89 85 91 87 85 86 81 87 93 95 90 92 92 91 89 85 86 94 96 87 64 74 75 77 77 78 73 72 74 70 67 59 47 49 60 70 82 80 81 88 95 94
90 85 91 89 86 82 84 80 89 86 95 93 92 93 92 91 88 96 97 96 85 65 68 77 77 76 75 72 70 70 70 68 68 60 52 59 75 85 82 79 79 80 90
95 90 92 89 76 82 82 82 89 90 91 93 92 94 94 98 95 96 96 73 65 57 60 68 74 74 74 70 71 70 68 67 69 69 64 58 65 74 64 61 57 62 74
93 90 90 88 78 85 76 81 86 89 95 83 78 92 93 93 98 96 91 69 71 57 56 58 66 69 67 62 64 70 69 68 69 71 70 68 66 62 58 59 54 52 47
90 92 91 88 84 86 81 67 74 85 100 90 80 58 54 64 81 78 72 83 61 53 54 53 52 51 51 51 53 65 70 72 72 71 72 70 70 61 58 63 63 60 55
98 92 86 84 88 86 82 76 61 77 92 98 87 78 62 53 56 56 54 55 57 55 52 50 50 47 46 45 45 50 66 64 63 65 69 70 69 68 60 61 67 70 68
100 99 87 88 94 85 74 76 67 75 91 97 88 78 74 69 58 52 50 50 50 51 53 52 51 50 52 57 54 54 57 55 54 57 60 64 64 71 69 59 64 73 76
100 100 90 91 87 75 65 81 78 71 89 99 95 81 78 78 73 71 68 66 64 61 56 53 49 44 61 63 61 58 56 55 55 54 54 56 59 59 61 64 67 71 79
79 96 100 97 80 72 62 76 83 70 77 86 91 83 80 81 78 83 79 68 64 63 64 71 70 69 65 64 61 59 59 59 60 58 58 55 55 57 61 65 67 72 78
72 68 90 90 97 71 60 69 84 76 66 78 90 83 82 82 82 81 78 71 67 69 67 71 72 70 66 63 62 60 59 59 61 62 63 63 62 59 60 65 70 73 79
61 52 79 74 89 88 66 56 70 79 71 73 71 76 77 77 77 72 70 68 69 62 59 58 62 66 68 68 68 68 68 68 68 68 68 67 66 65 64 65 69 74 78
59 61 69 65 78 92 73 66 57 55 62 69 68 70 69 67 70 67 66 62 58 59 57 55 60 67 69 70 69 69 70 70 69 66 66 63 64 70 67 74 74 75 79
59 61 50 64 70 84 89 84 68 64 59 62 65 67 68 66 67 64 65 62 62 60 55 58 61 66 68 69 72 71 69 63 64 61 62 66 73 74 71 64 66 76 77
68 63 75 66 67 68 68 85 81 83 76 66 62 63 67 68 68 67 67 66 66 68 63 62 66 71 75 76 76 65 66 63 64 64 67 72 74 70 75 73 70 72 78
75 76 80 90 78 77 80 84 72 89 87 74 64 64 68 70 71 70 68 70 68 74 77 77 75 76 75 77 73 71 67 63 62 62 66 67 70 68 72 77 66 74 69
80 70 77 79 82 80 82 86 64 84 91 84 71 66 68 70 70 69 70 73 75 75 66 68 64 75 73 68 78 64 61 61 63 63 68 65 62 66 75 80 73 69 64
77 65 64 63 64 67 79 66 78 76 86 76 76 74 66 74 75 72 72 77 80 79 75 69 69 72 71 66 70 76 92 78 68 71 69 67 67 77 81 78 72 69 69
71 70 59 63 67 69 80 79 90 81 88 79 72 71 73 72 72 78 75 78 84 84 72 75 78 82 88 83 80 83 92 96 90 68 69 69 68 79 76 73 74 74 73
35 51 66 66 68 72 69 74 82 80 82 79 76 73 71 70 66 65 69 82 86 86 84 83 86 90 91 94 94 86 90 100 95 86 75 78 76 75 76 76 79 80 78
32 31 44 70 63 66 70 62 64 78 68 66 68 72 81 92 98 97 92 92 92 90 88 82 65 60 69 79 85 88 83 82 88 94 80 82 89 86 87 85 85 84 83
34 32 31 46 70 62 58 61 59 59 58 79 77 76 76 74 84 84 80 66 50 44 45 49 54 60 66 74 78 86 96 88 88 95 99 94 93 94 92 90 89 86 85
Wind_Speed
28 28 24 22 20 19 18 16 17 18 16 17 19 21 22 23 24 24 22 19 19 18 18 18 18 18 19 19 18 19 19 22 21 20 20 18 15 15 15 15 15 14 12
34 30 26 22 21 19 18 18 18 20 17 18 19 22 24 25 26 24 22 19 18 18 18 19 19 19 19 18 16 16 16 18 19 17 17 17 18 17 17 17 18 16 14
35 31 27 23 22 20 19 19 20 21 18 17 18 20 23 24 23 22 19 18 17 18 18 18 19 18 16 15 13 12 11 13 14 13 13 14 15 16 15 15 15 15 16
34 30 26 23 22 20 20 20 20 18 17 17 18 19 21 21 20 19 18 17 17 18 18 18 18 18 18 14 12 14 15 13 12 12 11 11 12 11 11 12 12 13 15
31 29 26 24 22 20 19 20 20 18 18 18 18 19 19 20 20 19 18 17 17 18 19 20 19 18 16 12 11 13 13 13 13 13 13 13 13 12 11 9 8 10 11
30 28 25 24 21 19 20 22 20 18 17 18 18 19 20 20 19 19 17 16 17 19 19 19 18 17 14 13 13 12 11 12 12 13 13 13 13 11 11 11 10 9 9
29 26 24 23 20 20 19 22 20 18 16 18 18 19 19 20 19 18 18 16 17 18 18 18 17 15 13 11 10 9 9 9 10 11 11 11 11 10 11 10 10 10 9
27 25 23 20 19 19 20 21 20 19 16 17 18 18 19 19 19 17 16 17 16 17 17 16 15 13 11 9 7 7 6 6 7 8 9 10 9 9 10 10 10 10 9
25 24 22 20 20 17 18 21 21 18 17 14 16 17 19 19 18 17 16 16 15 15 14 14 12 11 9 7 5 4 5 4 4 4 5 7 7 7 8 8 9 9 9
23 23 21 20 20 17 16 17 21 19 16 15 14 14 15 16 16 16 15 13 13 14 12 11 11 9 7 6 5 4 2 2 2 2 2 4 5 6 6 7 7 8 8
20 21 19 20 20 16 14 16 20 20 18 16 13 12 13 14 14 14 13 12 11 9 9 9 7 7 5 4 3 4 3 1 2 3 2 2 3 5 6 6 6 7 7
16 19 20 20 19 15 14 17 19 21 20 18 15 13 12 12 12 12 11 10 9 7 6 6 6 5 5 4 2 3 3 2 3 3 3 4 3 4 6 7 6 6 7
14 19 21 20 18 14 14 19 18 22 21 20 17 14 12 12 11 10 9 9 8 7 6 6 5 5 4 3 2 3 3 3 4 4 5 5 5 5 6 7 8 8 8
14 4 3 17 20 15 15 18 19 20 22 20 19 16 13 13 12 10 8 7 8 7 6 6 5 4 4 3 3 3 4 5 5 6 6 6 7 7 7 7 7 8 9
19 13 21 11 18 18 17 19 19 20 21 20 19 18 15 13 12 10 10 8 7 7 7 6 6 5 5 5 6 7 7 7 8 8 9 9 10 10 10 9 8 8 8
27 18 30 18 18 21 19 19 20 20 20 20 19 19 17 14 13 13 12 10 10 8 7 7 6 7 6 6 6 6 7 8 9 10 11 12 12 12 12 12 11 10 10
28 30 32 21 23 24 24 20 19 21 22 22 21 19 17 16 16 15 12 11 9 9 8 8 7 7 6 6 8 9 9 9 11 12 16 14 15 12 12 12 13 9 10
36 34 32 25 18 26 21 22 23 22 22 23 22 21 19 18 16 16 13 11 9 9 9 8 7 7 8 9 9 9 11 13 14 12 14 14 11 13 15 13 11 11 10
40 37 38 31 33 24 23 22 21 23 23 26 25 24 21 19 17 16 14 12 11 10 9 9 9 9 8 10 12 13 14 14 15 19 20 19 17 15 13 10 10 11 9
36 37 37 31 35 39 34 35 25 21 19 26 25 26 24 20 17 17 15 13 12 11 10 9 10 11 12 13 13 13 16 18 19 19 19 19 19 17 13 13 12 10 6
33 35 39 37 41 38 36 30 22 23 27 23 27 28 25 21 19 17 15 14 14 13 9 11 12 10 12 13 11 17 19 22 24 22 17 17 15 13 12 12 12 9 6
24 30 33 34 33 31 33 28 30 29 34 30 23 24 18 21 22 20 18 17 15 12 10 11 11 13 14 14 12 10 3 7 9 4 3 7 8 3 9 13 12 11 8
13 22 28 30 30 33 34 28 27 28 22 24 23 23 25 21 23 20 17 18 16 14 14 15 15 14 14 15 14 6 2 3 3 4 5 7 3 4 9 11 11 9 7
16 16 21 25 27 30 28 30 28 24 18 23 22 22 20 19 19 20 19 20 17 15 14 14 15 15 15 14 10 10 13 8 3 3 2 3 3 4 7 11 10 9 7
19 16 18 20 24 25 26 28 31 31 27 24 22 21 14 11 11 14 14 13 13 11 12 10 10 10 10 11 11 9 7 9 12 6 8 5 1 2 7 9 11 8 6
21 21 16 18 21 23 25 25 27 25 24 20 20 21 19 13 14 11 10 10 9 8 7 8 9 9 9 11 12 11 9 5 3 4 3 7 4 4 7 9 9 9 7
Wind_Direction
164 160 158 152 147 142 139 133 133 127 123 107 110 123 127 126 125 122 118 120 108 104 103 102 104 105 103 100 96 91 83 77 82 86 79 76 71 74 72 70 65 61 60
158 158 157 156 150 146 141 136 138 133 135 118 109 118 127 127 124 120 117 113 109 107 107 106 106 106 105 101 99 95 86 80 80 85 85 73 66 73 72 68 59 50 46
155 156 158 160 152 149 143 141 137 139 140 125 118 115 117 120 120 119 118 115 115 112 113 114 114 112 107 101 95 87 92 85 75 82 88 87 79 70 70 60 70 55 54
154 159 159 157 153 148 144 142 144 138 134 129 126 124 124 127 131 126 123 122 121 120 122 123 122 118 111 103 101 93 88 82 72 78 83 82 78 72 85 69 58 58 58
155 159 158 158 152 150 149 148 142 138 132 132 133 133 132 131 130 129 129 130 128 129 131 132 129 125 119 108 103 108 93 75 72 75 76 74 72 67 65 65 64 62 55
158 160 160 158 153 153 155 152 146 144 135 134 136 137 136 136 134 135 136 136 132 133 135 138 137 132 121 109 104 112 95 82 76 73 71 72 68 69 66 62 61 59 62
160 160 160 156 153 154 160 159 153 148 143 137 139 139 140 140 141 142 141 136 134 136 139 140 141 136 128 121 109 108 104 86 77 69 68 67 68 69 65 62 61 59 60
157 160 159 156 156 152 160 165 159 157 151 141 141 142 145 146 144 144 142 138 135 136 141 146 148 146 141 132 113 101 100 90 87 74 62 55 57 57 52 50 51 52 54
158 159 159 157 155 152 156 167 167 160 162 148 144 146 151 152 151 149 147 143 141 139 142 144 150 156 154 150 142 118 113 88 86 71 55 46 45 41 38 36 38 39 39
160 160 160 161 162 160 159 166 172 169 161 161 145 145 148 150 151 153 150 152 150 145 146 147 150 154 157 156 154 164 144 86 18 349 19 26 33 20 20 20 22 21 22
161 163 166 167 167 169 170 172 174 173 171 171 163 155 154 155 155 155 153 156 157 157 157 155 160 161 165 167 168 184 189 286 341 326 296 326 7 352 356 360 3 1 5
164 171 171 172 174 178 182 179 177 177 177 176 175 168 166 165 161 158 157 160 163 167 172 170 171 180 180 170 167 171 202 280 317 308 298 293 313 315 328 338 339 338 343
167 178 178 178 181 184 190 181 180 184 183 180 183 180 177 176 176 172 172 176 179 182 189 194 197 203 190 203 224 249 262 291 303 322 295 298 296 305 312 319 317 319 325
173 349 208 192 186 187 193 192 190 191 190 191 190 187 185 180 185 192 197 199 201 197 201 198 195 202 217 246 263 266 276 290 302 303 307 301 291 291 297 306 312 305 311
172 240 286 315 224 190 196 195 192 193 196 194 195 195 198 203 208 212 209 205 204 207 197 206 220 230 244 261 271 279 287 290 293 294 295 290 286 279 281 288 294 300 297
165 165 246 304 285 217 193 195 199 197 193 196 198 202 207 218 219 219 220 219 220 221 220 226 237 243 253 266 277 284 292 291 292 291 289 286 286 282 277 274 277 287 296
177 187 189 242 256 238 210 195 198 203 201 200 204 208 213 220 220 221 227 229 233 233 232 235 234 247 258 269 279 286 288 290 287 296 296 291 286 275 292 285 283 292 294
187 194 187 183 222 242 239 223 204 210 210 211 212 216 220 221 218 220 224 226 227 234 235 238 241 254 265 277 286 289 286 294 299 292 297 300 289 286 293 275 282 264 274
194 193 194 198 191 205 227 232 230 226 226 221 221 218 217 219 217 217 225 229 227 227 236 241 249 263 276 283 282 290 289 292 291 292 290 294 288 290 282 281 281 243 250
189 191 200 198 198 213 206 210 207 243 245 228 220 216 214 216 223 226 228 223 218 224 234 244 256 265 274 283 290 286 291 294 296 295 291 287 284 282 270 262 245 207 214
197 200 204 205 204 210 203 205 204 220 242 235 220 212 216 217 215 214 212 215 216 222 244 257 266 263 273 283 285 290 298 295 290 287 286 296 291 272 253 246 207 191 186
206 206 206 209 211 208 217 206 210 207 224 229 212 214 240 228 227 221 219 221 223 230 245 261 266 269 271 279 280 302 324 321 282 287 351 0 346 250 206 190 189 189 189
228 219 218 215 218 219 221 213 212 217 228 212 211 208 222 232 236 224 232 233 228 230 244 259 265 273 279 279 277 258 297 256 325 276 297 334 350 179 183 191 195 193 191
234 236 229 225 224 223 221 224 222 212 197 218 206 206 211 213 224 221 210 225 224 230 248 255 266 274 275 275 281 257 247 253 260 319 16 63 67 173 200 201 198 189 189
238 235 237 239 232 227 222 224 226 219 215 217 211 207 211 217 207 208 211 217 225 238 252 262 268 274 275 275 274 271 259 261 257 253 271 269 158 208 200 201 194 193 196
241 245 243 236 240 231 238 234 238 237 235 208 202 204 206 220 234 218 218 221 227 239 257 266 269 275 281 279 275 271 257 249 281 248 249 269 240 194 188 187 193 198 201